FLOCK 4V-15 (46528 NORAD) Tracking and Keplerian Element Data

This shows tracking and keplerian element data for the satellite.

Feedback or suggestion? Click here.




ElementValue
Catalog46528
NameFLOCK 4V-15
Epoch Orbit510
Epoch Day304.77668141
Epoch Year2020
RAAN16.8863
Inclination97.4618
Eccentricity0.0004493
Argument of Perigee72.0988
Mean Anonmoly288.0734
Mean Motion15.16084681
Decay Rate7.99E-06
L11 46528U 20061BE 20304.77668141 .00000799 00000-0 44929-4 0 9990
L22 46528 97.4618 16.8863 0004493 72.0988 288.0734 15.16084681 5106

Live tracking and technical data element details for FLOCK 4V-15 (NORAD 46528). FLOCK 4V-15 can be tracked NOW for your location showing map with azimuth and elevation plus other details from your city location.

Track the satellite on the map from your city or location and see movement details for azimuth, elevation, latitude, longitude, range, height, and movement on the map or in text.







IsCatalogInMostPopularTable: catalog: 46528, numindb: 7
Update: records affected: 1



GetName: 46528 FLOCK 4V-15

Hit Count: updated at: Sat, 31 Oct 2020 10:34:44 GMT